Welcome to the New NWS' Forecast!
Most changes are behind the scenes, but click here for differences you might notice.
Latest weather observations around

Huntsville, Madison County Executive Airport (KMDQ)

Using English Units (Switch to International System of Units)
Date/ Time (CST) Wind (mph) Vis. (mi) Weather Sky Cond. Temp (°F) Rel. Humidity Wind Chill (°F) Heat Index (°F) Pressure Precip. (in)
Air Dwpt 6 hour Altimeter (inHg) Sea level (inHg) 1 hr 3 hr 6 hr
Max Min
Jan 23 07:15 SW 5 10 Clear CLR 36 30     81% 32   29.97        
Jan 23 06:55 SW 5 10 Clear CLR 37 30     75% 34   29.97        
Jan 23 06:35 WSW 5 10 Clear CLR 37 30     75% 34   29.96        
Notice The following observation data may not be complete
Jan 23 06:15   10 Clear CLR          %              
Jan 23 05:55 SW 7 10 Clear CLR 37 30     75% 32   29.95        
Jan 23 05:35 SW 7 10 Clear CLR 41 30     65% 36   29.94        
Jan 23 05:15 WSW 7 10 Clear CLR 41 30     65% 36   29.94        
Jan 23 04:55 WSW 9 10 Clear CLR 41 30     65% 35   29.93        
Jan 23 04:35 WSW 8 10 Clear CLR 43 30     61% 38   29.92        
Jan 23 04:15 SW 6 10 Clear CLR 41 30     65% 37   29.91        
Jan 23 03:55 WSW 8 10 Clear CLR 43 30     61% 38   29.92        
Jan 23 03:35 WSW 7 10 Clear CLR 43 30     61% 39   29.91        
Jan 23 03:15 SW 8 10 Clear CLR 43 30     61% 38   29.91        
Jan 23 02:55 SW 7 10 Clear CLR 43 30     61% 39   29.91        
Jan 23 02:35 WSW 7 10 Clear CLR 45 30     57% 41   29.9        
Jan 23 02:15 WSW 9 10 Clear CLR 45 30     57% 40   29.9        
Jan 23 01:55 WSW 9 10 Clear CLR 46 30     53% 42   29.89        
Jan 23 01:35 WSW 7 10 Clear CLR 46 30     53% 43   29.89        
Jan 23 01:15 WSW 9 10 Clear CLR 48 30     50% 44   29.88        
Jan 23 00:55 WSW 11 10 Clear CLR 50 30     46% 46   29.87        
Jan 23 00:35 WSW 11 10 Clear CLR 48 32     53% 43   29.87        
Jan 23 00:15 WSW 9 10 Clear CLR 50 30     46% 46   29.86        
Jan 22 23:55 WSW 10 10 Clear CLR 50 30     46% 46   29.86        
Jan 22 23:35 WSW 13 10 Clear CLR 52 32     47%     29.86        
Jan 22 23:15 WSW 13 10 Clear CLR 52 32     47%     29.86        
Jan 22 22:55 SW 14 10 Clear CLR 52 32     47%     29.86        
Jan 22 22:35 WSW 11 10 Clear CLR 54 34     47%     29.86        
Jan 22 22:15 WSW 10 10 Clear CLR 54 37     54%     29.86        
Jan 22 21:55 WSW 13 10 Partly Cloudy SCT017 SCT025 SCT031 55 43     62%     29.86        
Jan 22 21:35 WSW 11 10 Cloudy SCT017 BKN035 OVC050 59 52     77%     29.85        
Jan 22 21:15 SW 10 10 Mostly Cloudy SCT017 SCT027 BKN036 57 54     88%     29.84        
Jan 22 20:55 SSW 15 10 Partly Cloudy SCT021 SCT030 SCT041 57 54     88%     29.84        
Jan 22 20:35 S 11 10 Partly Cloudy SCT023 SCT028 57 54     88%     29.84        
Jan 22 20:15 S 11 10 Partly Cloudy SCT023 57 54     88%     29.83        
Jan 22 19:55 S 11 10 Clear CLR 59 54     82%     29.83        
Jan 22 19:35 S 13 10 Partly Cloudy SCT019 SCT025 SCT032 59 54     82%     29.83        
Jan 22 19:15 S 14 10 Mostly Cloudy SCT016 SCT024 BKN029 59 54     82%     29.82        
Jan 22 18:55 SSW 13 10 Mostly Cloudy BKN016 BKN029 59 54     82%     29.81        
Jan 22 18:35 S 15 10 Partly Cloudy SCT018 61 54     77%     29.79        
Jan 22 18:15 S 9 10 Clear CLR 61 54     77%     29.79        
Jan 22 17:55 S 15 10 Clear CLR 61 55     82%     29.8        
Jan 22 17:35 S 15 10 Clear CLR 61 55     82%     29.79        
Jan 22 17:15 S 10 10 Partly Cloudy SCT018 SCT030 SCT041 61 55     82%     29.79        
Jan 22 16:55 SSW 13 10 Cloudy BKN018 BKN025 OVC040 61 54     77%     29.8        
Jan 22 16:35 S 15 10 Cloudy BKN022 OVC026 61 54     77%     29.8        
Jan 22 16:15 S 11 10 Cloudy BKN024 OVC029 61 54     77%     29.8        
Jan 22 15:55 SSE 13 10 Cloudy SCT024 BKN029 OVC043 61 54     77%     29.8        
Jan 22 15:35 SSE 11 10 Mostly Cloudy SCT024 SCT030 BKN035 61 54     77%     29.8        
Jan 22 15:15 SSE 11 10 Cloudy SCT024 OVC028 61 54     77%     29.8        
Jan 22 14:55 SSE 10 10 Cloudy BKN021 BKN030 OVC049 61 54     77%     29.8        
Jan 22 14:35 S 13 10 Partly Cloudy SCT021 61 54     77%     29.81        
Jan 22 12:55 SSE 10 10 Partly Cloudy SCT043 SCT090 SCT120 55 52     88%     29.85   0    
Jan 22 12:35 SE 9 7 Light Rain SCT021 BKN041 OVC090 55 52     88%     29.88   0    
Jan 22 12:15 S 10 4 Thunderstorms and Rain BKN021 OVC032 55 52     88%     29.91   0    
Jan 22 11:55 S 10 5 Thunderstorms and Rain OVC021 55 50     82%     29.94   0    
Jan 22 11:35 SSE 11 10 Light Rain BKN023 OVC029 55 48     77%     29.93        
Jan 22 11:15 SSE 11 10 Light Drizzle SCT025 BKN046 OVC060 55 48     77%     29.94        
Jan 22 10:55 SE 10 10 Light Drizzle SCT023 BKN060 OVC070 55 46     72%     29.95        
Jan 22 10:35 SE 13 10 Light Rain SCT025 BKN050 OVC110 57 45     63%     29.96        
Jan 22 10:15 SSE 11 10 Mostly Cloudy SCT035 BKN044 BKN090 59 45     59%     29.97        
Jan 22 09:55 SSE 14 10 Cloudy SCT023 BKN036 OVC042 59 45     59%     29.99        
Jan 22 09:35 SSE 13 10 Cloudy SCT023 OVC032 59 43     55%     29.99        
Jan 22 09:15 SSE 14 10 Cloudy BKN025 OVC032 59 43     55%     29.98        
Jan 22 08:55 SSE 14 10 Cloudy OVC027 57 41     55%     29.98        
Jan 22 08:35 SSE 10 10 Cloudy OVC027 57 41     55%     29.97        
Jan 22 08:15 SSE 9 10 Mostly Cloudy BKN027 BKN110 55 39     54%     29.98        
Jan 22 07:55 SSE 13 10 Mostly Cloudy BKN110 55 39     54%     29.97        
Jan 22 07:35 SSE 13 10 Partly Cloudy SCT100 55 39     54%     29.97        
Jan 22 07:15 SE 13 10 Mostly Cloudy BKN100 55 39     54%     29.97        
Jan 22 06:55 SE 11 10 Partly Cloudy SCT100 55 39     54%     29.98        
Jan 22 06:35 SE 11 10 Clear CLR 55 39     54%     29.98        
Jan 22 06:15 SSE 11 10 Clear CLR 55 41     58%     29.98        
Jan 22 05:55 SE 9 10 Partly Cloudy SCT095 55 41     58%     29.99        
Jan 22 05:35 SSE 11 10 Cloudy OVC095 55 41     58%     30.01        
Jan 22 05:15 SE 10 10 Cloudy OVC095 55 41     58%     29.99        
Jan 22 04:55 SSE 8 10 Cloudy OVC095 55 41     58%     30.01        
Jan 22 04:35 S 8 10 Partly Cloudy SCT095 55 41     58%     30.01        
Jan 22 04:15 SSE 9 10 Clear CLR 57 41     55%     30.01        
Jan 22 03:55 SSE 8 10 Clear CLR 57 41     55%     30.01        
Jan 22 03:35 SSE 9 10 Clear CLR 57 41     55%     30.01        
Jan 22 03:15 SE 11 10 Clear CLR 57 41     55%     29.99        
Jan 22 02:55 SE 11 10 Clear CLR 57 41     55%     30.01        
Jan 22 02:35 SE 8 10 Clear CLR 57 41     55%     30.03        
Jan 22 02:15 SSE 9 10 Clear CLR 55 41     58%     30.03        
Jan 22 01:55 S 7 10 Clear CLR 57 41     55%     30.04        
Jan 22 01:35 SSE 8 10 Clear CLR 57 43     59%     30.03        
Jan 22 01:15 SSE 9 10 Clear CLR 57 43     59%     30.04        
Jan 22 00:55 SE 10 10 Clear CLR 59 43     55%     30.04        
Jan 22 00:35 SE 7 10 Clear CLR 59 43     55%     30.04        
Jan 22 00:15 SSE 9 10 Clear CLR 59 43     55%     30.05        
Jan 21 23:55 SE 9 10 Clear CLR 59 43     55%     30.05        
Jan 21 23:35 SE 9 10 Clear CLR 59 43     55%     30.06        
Jan 21 23:15 SE 9 10 Clear CLR 59 41     51%     30.07        
Jan 21 22:55 SSE 8 10 Clear CLR 59 43     55%     30.08        
Jan 21 22:35 SSE 6 10 Clear CLR 59 43     55%     30.08        
Jan 21 22:15 SSE 8 10 Clear CLR 59 41     51%     30.09        
Jan 21 21:35 SE 9 10 Clear CLR 59 41     51%     30.09        
Jan 21 21:15 SSE 9 10 Partly Cloudy SCT090 61 41     48%     30.09        
Jan 21 20:55 SE 8 10 Mostly Cloudy BKN090 61 41     48%     30.09        
Jan 21 20:35 SSE 7 10 Mostly Cloudy BKN090 61 41     48%     30.1        
Jan 21 20:15 SSE 7 10 Partly Cloudy SCT090 59 41     51%     30.1        
Jan 21 19:55 SSE 3 10 Clear CLR 59 41     51%     30.1        
Jan 21 19:35 SSE 7 10 Partly Cloudy SCT090 61 41     48%     30.11        
Jan 21 19:15 SE 5 10 Partly Cloudy SCT090 61 41     48%     30.11        
Jan 21 18:55 SSE 8 10 Partly Cloudy SCT090 61 41     48%     30.1        
Jan 21 18:35 SE 7 10 Clear CLR 61 41     48%     30.11        
Jan 21 18:15 SSE 8 10 Partly Cloudy SCT090 61 41     48%     30.11        
Jan 21 17:55 SE 6 10 Clear CLR 63 41     45%     30.11        
Jan 21 17:35 SE 7 10 Clear CLR 63 41     45%     30.11        
Jan 21 17:15 SSE 7 10 Clear CLR 64 41     42%     30.11        
Jan 21 16:55 SE 7 10 Clear CLR 66 41     40%     30.11        
Jan 21 16:35 SSE 6 10 Clear CLR 68 41     37%     30.1        
Jan 21 16:15 S 9 10 Clear CLR 68 41     37%     30.1        
Jan 21 15:55 S 8 10 Clear CLR 68 39     35%     30.1        
Jan 21 15:35 SSW 9 10 Partly Cloudy SCT065 68 41     37%     30.11        
Jan 21 15:15 SSW 7 10 Partly Cloudy SCT065 68 41     37%     30.12        
Jan 21 14:55 SSW 11 10 Mostly Cloudy BKN065 68 41     37%     30.12        
Jan 21 14:35 S 9 10 Cloudy OVC065 68 41     37%     30.12        
Jan 21 14:15 SW 10 10 Mostly Cloudy BKN065 BKN085 66 41     40%     30.12        
Jan 21 13:55 SSW 8 10 Mostly Cloudy SCT065 BKN085 68 39     35%     30.13        
Jan 21 13:35 S 9 10 Partly Cloudy SCT075 SCT085 66 39     37%     30.13        
Jan 21 13:15 S 11 10 Partly Cloudy SCT075 64 39     39%     30.14        
Jan 21 12:55 S 11 10 Clear CLR 64 39     39%     30.15        
Jan 21 12:35 S 9 10 Clear CLR 64 39     39%     30.17        
Jan 21 12:15 S 11 10 Partly Cloudy SCT065 SCT070 63 39     42%     30.17        
Jan 21 11:55 SSE 10 10 Partly Cloudy SCT065 SCT070 SCT100 63 37     39%     30.19        
Jan 21 11:35 SSE 8 10 Mostly Cloudy SCT065 BKN100 63 37     39%     30.2        
Jan 21 11:15 S 7 10 Partly Cloudy SCT100 61 37     42%     30.22        
Jan 21 10:55 S 10 10 Partly Cloudy SCT090 61 37     42%     30.24        
Jan 21 10:35 SSW 11 10 Mostly Cloudy SCT080 BKN090 59 37     45%     30.25        
Jan 21 10:15 S 10 10 Mostly Cloudy SCT070 BKN090 59 37     45%     30.25        
Jan 21 09:55 S 10 10 Partly Cloudy SCT070 SCT090 57 39     51%     30.26        
Jan 21 09:35 S 6 10 Partly Cloudy SCT090 55 39     54%     30.26        
Jan 21 09:15 Calm 10 Clear CLR 54 37     54%     30.26        
Jan 21 08:55 SE 3 10 Partly Cloudy SCT085 52 37     58%     30.26        
Jan 21 08:35 Calm 10 Partly Cloudy SCT085 50 37     62%     30.25        
Jan 21 08:15 SE 3 10 Partly Cloudy SCT085 50 37     62% 49   30.24        
Jan 21 07:55 SE 3 10 Mostly Cloudy BKN060 BKN085 50 37     62% 49   30.24        
Jan 21 07:35 ESE 3 10 Cloudy OVC060 46 37     71% 45   30.23        
Jan 21 07:15 Calm 10 Cloudy OVC060 45 37     76%     30.23        
Jan 21 06:55 Calm 10 Cloudy OVC050 45 37     76%     30.23        
Jan 21 06:35 Calm 10 Cloudy OVC050 46 37     71%     30.22        
Jan 21 06:15 Calm 10 Cloudy SCT049 BKN065 OVC080 48 37     66%     30.22        
Jan 21 05:55 Calm 10 Cloudy BKN065 OVC080 46 37     71%     30.21        
Jan 21 05:35 E 3 10 Cloudy BKN065 OVC080 46 37     71% 45   30.2        
Jan 21 05:15 E 5 10 Cloudy OVC065 45 37     76% 42   30.2        
Jan 21 04:55 ESE 3 10 Cloudy SCT050 OVC065 43 36     76% 41   30.2        
Jan 21 04:35 Calm 10 Cloudy BKN050 OVC065 41 37     87%     30.2        
Jan 21 04:15 Calm 10 Cloudy BKN050 OVC065 41 36     81%     30.2        
Jan 21 03:55 SE 5 10 Cloudy SCT038 BKN050 OVC065 41 36     81% 38   30.2        
Notice The following observation data may not be complete
Jan 21 03:35 Calm 10 Cloudy SCT036 OVC050   34      %     30.2        
Notice The following observation data may not be complete
Jan 21 03:15 Calm 10 Mostly Cloudy BKN055   32      %     30.2        
Notice The following observation data may not be complete
Jan 21 02:55 SE 3 10 Clear CLR   34      %     30.19        
Notice The following observation data may not be complete
Jan 21 02:35 Calm 10 Clear CLR   32      %     30.19        
Notice The following observation data may not be complete
Jan 21 02:15 Calm 10 Partly Cloudy SCT045 SCT050   34      %     30.19        
Notice The following observation data may not be complete
Jan 21 01:55 Calm 10 Partly Cloudy SCT045   32      %     30.2        
Jan 21 01:35 Calm 10 Partly Cloudy SCT045 41 34     75%     30.2        
Notice The following observation data may not be complete
Jan 21 01:15 Calm 10 Partly Cloudy SCT043   32      %     30.2        
Notice The following observation data may not be complete
Jan 21 00:55 Calm 10 Clear CLR   34      %     30.2        
Notice The following observation data may not be complete
Jan 21 00:35 Calm 10 Clear CLR   32      %     30.2        
Notice The following observation data may not be complete
Jan 21 00:15 Calm 10 Clear CLR   32      %     30.2        
Notice The following observation data may not be complete
Jan 20 23:55 Calm 10 Clear CLR   32      %     30.21        
Notice The following observation data may not be complete
Jan 20 23:35 Calm 10 Clear CLR   32      %     30.21        
Notice The following observation data may not be complete
Jan 20 23:15 Calm 10 Clear CLR   32      %     30.21        
Notice The following observation data may not be complete
Jan 20 22:55 Calm 10 Clear CLR   32      %     30.22        
Notice The following observation data may not be complete
Jan 20 22:35 Calm 10 Clear CLR   32      %     30.22        
Notice The following observation data may not be complete
Jan 20 22:15 Calm 10 Clear CLR   32      %     30.22        
Notice The following observation data may not be complete
Jan 20 21:35 Calm 10 Clear CLR   32      %     30.21        
Jan 20 21:15 Calm 10 Clear CLR 43 34     70%     30.21        
Jan 20 20:55 Calm 10 Clear CLR 41 34     75%     30.22        
Notice The following observation data may not be complete
Jan 20 20:35 Calm 10 Clear CLR   34      %     30.22        
Jan 20 20:15 Calm 10 Clear CLR 43 34     70%     30.22        
Jan 20 19:55 S 3 10 Clear CLR 48 34     57% 47   30.22        
Jan 20 19:35 S 5 10 Partly Cloudy SCT055 46 34     61% 44   30.22        
Jan 20 19:15 Calm 10 Partly Cloudy SCT055 45 34     66%     30.22        
Jan 20 18:55 SSW 3 10 Clear CLR 46 34     61% 45   30.21        
Jan 20 18:35 SSW 5 10 Clear CLR 50 34     54% 48   30.21        
Jan 20 18:15 S 5 10 Clear CLR 50 34     54% 48   30.19        
Jan 20 17:55 SSE 6 10 Clear CLR 55 34     44%     30.19        
Jan 20 17:35 SSE 5 10 Clear CLR 55 34     44%     30.19        
Jan 20 17:15 S 6 10 Clear CLR 55 34     44%     30.18        
Jan 20 16:55 SSW 8 10 Clear CLR 59 34     39%     30.18        
Jan 20 16:35 S 7 10 Clear CLR 61 34     36%     30.18        
Jan 20 16:15 SW 8 10 Clear CLR 61 34     36%     30.19        
Jan 20 15:55 SW 9 10 Partly Cloudy SCT070 63 34     34%     30.19        
Jan 20 15:35 S 8 10 Partly Cloudy SCT070 63        %     30.18        
Jan 20 15:15 SSW 10 10 Clear CLR 63 32     32%     30.19        
Jan 20 14:55 SW 9 10 Partly Cloudy SCT047 63 32     32%     30.19        
Jan 20 14:35 SW 8 10 Partly Cloudy SCT047 61 32     34%     30.19        
Jan 20 14:15 S 9 10 Mostly Cloudy BKN047 61 32     34%     30.19        
Jan 20 13:55 SW 9 10 Partly Cloudy SCT047 61 32     34%     30.19        
Jan 20 13:35 WSW 10 10 Partly Cloudy SCT047 SCT060 61 32     34%     30.2        
Jan 20 13:15 SSW 13 10 Partly Cloudy SCT060 59 30     33%     30.2        
Jan 20 12:55 SSW 10 10 Mostly Cloudy BKN060 59 28     31%     30.21        
Jan 20 12:35 SSW 7 10 Cloudy OVC060 59 27     29%     30.22        
Jan 20 12:15 SW 8 10 Cloudy OVC060 57 27     31%     30.24        
Jan 20 11:55 SSW 9 10 Cloudy OVC060 55 27     33%     30.25        
Jan 20 11:35 SSW 7 10 Cloudy OVC060 55 27     33%     30.26        
Jan 20 11:15 SW 7 10 Cloudy OVC050 55 25     30%     30.27        
Jan 20 10:55 SW 3 10 Cloudy OVC050 54 25     32%     30.27        
Jan 20 10:35 SW 8 10 Partly Cloudy SCT050 54 27     35%     30.28        
Jan 20 10:15 SSW 7 10 Mostly Cloudy BKN050 52 27     37%     30.28        
Jan 20 09:55 S 8 10 Cloudy OVC050 52 25     35%     30.28        
Jan 20 09:35 S 8 10 Cloudy OVC050 50 25     37% 47   30.28        
Jan 20 09:15 S 6 10 Cloudy OVC050 50 23     34% 48   30.28        
Jan 20 08:55 S 7 10 Cloudy OVC050 48 25     40% 45   30.28        
Jan 20 08:35 Calm 10 Cloudy OVC050 45 28     53%     30.28        
Jan 20 08:15 Calm 10 Cloudy OVC050 45 30     57%     30.27        
Jan 20 07:55 Calm 10 Cloudy OVC050 43 30     61%     30.26        
Jan 20 07:35 Calm 10 Cloudy OVC048 43 27     52%     30.25        
Jan 20 07:15 SSE 3 10 Cloudy OVC046 43 27     52% 41   30.24        
Notice The following observation data may not be complete
Jun 12 08:35   10 Mostly Cloudy SCT018 BKN026 BKN100          %              
Jun 12 04:15 Calm 10 Clear CLR 72 66     83%   72 30.12        
Jun 12 04:00 Calm 10 Clear CLR 72 66     83%   72 30.12        
Jun 12 00:15 Calm 10 Clear CLR 70 66     88%     30.12        
Jun 11 12:55 SE 7 10 Partly Cloudy SCT047 SCT055 86        %     30.16        
Jun 11 11:55 SSE 9 10 Partly Cloudy SCT065 84        %     30.17        
Jun 11 06:55 ESE 3 10 Clear CLR 68 61     78%     30.14        
Jun 11 02:35 Calm 10 Clear   63 61     94%     30.1        
Jun 11 02:15 Calm 10 Clear CLR 63 61     94%     30.11        
Jun 09 23:35 Calm 10 Partly Cloudy SCT060 63 59     88%     30.01        
Jun 09 21:35 Calm 10 Clear CLR 64 59     83%     29.98        
Jun 09 20:15 Calm 10 Clear CLR 70 59     69%     29.95        
Notice The following observation data may not be complete
Jun 09 19:15   10 Clear CLR          %              
Jun 09 18:55 Calm 10 Clear CLR 79        %     29.94        
Jun 09 16:35 Calm 10 Clear CLR 79        %     29.95        
Jun 09 10:15 ESE 3 10 Clear CLR 73 55     53%   73 30        
Notice The following observation data may not be complete
Jun 09 04:35   10 Clear CLR          %              
Jun 09 03:35 Calm 10 Clear CLR 55 54     94%     29.93        
Jun 08 21:35 Calm 10 Clear CLR 63 54     72%     29.92        
Jun 08 20:35 N 3 10 Clear CLR 68 54     60%     29.9        
Jun 08 07:55 N 6 10 Clear CLR 61 54     77%     29.96        
Jun 08 06:55 Calm 10 Clear CLR 57 54     88%     29.94        
Jun 07 14:55 N 13 10 Partly Cloudy SCT060 77        %     29.88        
Jun 07 13:55 NNE 11 10 Partly Cloudy SCT060 79        %     29.88        
Jun 07 12:35 NNE 11 10 Clear   77        %     29.9        
Notice The following observation data may not be complete
Jun 06 15:15   10 Clear CLR          %              
Jun 06 07:15 Calm 10 Mostly Cloudy SCT060 BKN080 68 68     100%     29.83        
Jun 06 06:55 Calm 7 Light Rain SCT033 BKN060 OVC085 68 68     100%     29.84   0    
Jun 06 05:55 Calm 10 Light Rain BKN003 OVC009 68 68     100%     29.83        
Jun 06 03:55 Calm 10 Mostly Cloudy BKN007 BKN110 68 66     94%     29.81        
Jun 05 19:15 Calm 10 Light Drizzle SCT050 73 68     83%   74 29.8